Home > Time Zones > World Clock > Weather > Ghana > Accra > Past weeks

Flag for Ghana Weather past 2 weeks in Accra, Ghana

Now
79 °F

Clear.


Feels Like: 82 °F
Forecast: 80 / 90 °F
Wind: 7 mph from Northwest

Location: Accra Airport

Current Time: Apr 27, 2015 at 5:09:58 AM

Latest Report: Apr 27, 2015 at 3:00 AM


Visibility: 10 mi

Pressure: 29.86 "Hg

Humidity: 84%

Dew point: 73 °F

Location of AccraLocation

Historic Weather in Accra — Graph

°F

Accra temperature yesterday

Maximum temperature yesterday: 90 °F (at 12:00 PM)
Minimum temperature yesterday: 79 °F (at 5:00 AM)
Average temperature yesterday: 83 °F

Past Weeks' High & Low Weather Summary

 TemperatureHumidityPressure
High91 °F (Apr 25, 1:54 PM)100% (Apr 12, 6:00 AM)29.98 "Hg (Apr 12, 6:00 AM)
Low72 °F (Apr 12, 6:00 AM)56% (Apr 25, 1:54 PM)29.77 "Hg (Apr 15, 2:56 PM)
Average83 °F81%29.87 "Hg
* Reported Apr 12 3:00 AM — Apr 27 3:00 AM, Accra, Weather by CustomWeather, © 2015

Note: Actual official high and low records may vary slightly from our data, if they occured in-between our weather recording intervals... More about our weather records

Advertising

Accra weather history for previous 24 hours

 ConditionsComfort  
Time TempWeatherWind HumidityBarometerVisibility
3:00 AM
Mon, Apr 27
79 °FClear.7 mph84%29.86 "Hg10 mi
1:00 AM81 °FClear.8 mph79%29.89 "Hg10 mi
12:00 AM81 °FClear.5 mph79%29.89 "Hg10 mi
11:00 PM
Sun, Apr 26
81 °FClear.No wind79%29.92 "Hg10 mi
8:00 PM81 °FClear.6 mph74%29.92 "Hg10 mi
7:01 PM81 °FPassing clouds.7 mph84%29.89 "HgN/A
6:00 PM81 °FPassing clouds.3 mph84%29.86 "HgN/A
3:00 PM81 °FPartly sunny.13 mph89%29.86 "HgN/A
2:00 PM88 °FPartly sunny.10 mph70%29.89 "HgN/A
1:00 PM90 °FPartly sunny.9 mph67%29.89 "HgN/A
12:00 PM90 °FHot.13 mph67%29.89 "HgN/A
11:00 AM88 °FPartly sunny.14 mph70%29.92 "HgN/A
10:00 AM88 °FPartly sunny.10 mph70%29.95 "HgN/A
9:00 AM84 °FScattered clouds.9 mph79%29.95 "HgN/A
7:00 AM79 °FPassing clouds.9 mph94%29.89 "HgN/A
6:00 AM79 °FPassing clouds.8 mph94%29.89 "HgN/A
5:00 AM79 °FPassing clouds.8 mph94%29.86 "HgN/A
Weather by CustomWeather, © 2015

See weather overviewHow to use our weather pages